User: anonymous   Login
Location: Los Gatos B&B
(42.6926°N, 77.0646°W)
Time: 18:28:01
(UTC-04:00)
Language:

SL-16 R/B - Orbit

View from above orbital plane
View from above orbital plane
View from above satellite
View from above satellite

Ground track
Ground track

The orbit data is extracted from the following two-line orbital elements,

1 28353U 04021B   15184.88099080 -.00000130  00000-0 -43368-4 0  9993
2 28353 071.0017 136.4248 0006357 225.6090 134.4512 14.14161099571179
Epoch (UTC): 03 July 2015 21:08:37
Eccentricity: 0.0006357
inclination: 71.0017°
perigee height: 840 km
apogee height: 850 km
right ascension of ascending node: 136.4248°
argument of perigee: 225.6090°
revolutions per day: 14.14161099
mean anomaly at epoch: 134.4512°
orbit number at epoch: 57117

The dashed part of the orbit path shows where the satellite is in the earth's shadow,  

DLR